This is the latest recevied weather packets stored in our database for station/object K1RFS. If no packets are shown the sender has not sent any weather packets the latest 10 day(s).
| Time | Temp. | Humidity | Pressure | Rain* | Wind** | Luminosity | Snow |
|---|---|---|---|---|---|---|---|
| 1788657800 | 28.33° C | 17% | 1000.5 hPa | 0 mm | - | 15 W/m² | - |
| 1788657495 | 28.33° C | 17% | 1000.5 hPa | 0 mm | - | 18 W/m² | - |
| 1788657189 | 28.89° C | 16% | 1000.6 hPa | 0 mm | - | 20 W/m² | - |
| 1788656886 | 28.89° C | 16% | 1000.4 hPa | 0 mm | - | 22 W/m² | - |
| 1788656581 | 28.89° C | 16% | 1000.4 hPa | 0 mm | - | 26 W/m² | - |
| 1788656276 | 28.89° C | 16% | 1000.2 hPa | 0 mm | - | 33 W/m² | - |
| 1788655975 | 29.44° C | 16% | 1000.4 hPa | 0 mm | - | 41 W/m² | - |
| 1788655674 | 30° C | 15% | 1000.6 hPa | 0 mm | - | 49 W/m² | - |
| 1788655370 | 30° C | 16% | 1000.7 hPa | 0 mm | - | 58 W/m² | - |
| 1788655069 | 30° C | 16% | 1000.7 hPa | 0 mm | - | 62 W/m² | - |
| 1788654765 | 30° C | 16% | 1000.6 hPa | 0 mm | - | 67 W/m² | - |
| 1788654460 | 30° C | 16% | 1000.2 hPa | 0 mm | - | 69 W/m² | - |
| 1788654160 | 31.11° C | 16% | 1000.4 hPa | 0 mm | - | 96 W/m² | - |
| 1788653856 | 31.67° C | 16% | 1000.6 hPa | 0 mm | - | 124 W/m² | - |
| 1788653551 | 31.67° C | 15% | 1000.4 hPa | 0 mm | - | 120 W/m² | - |
| 1788653246 | 31.67° C | 15% | 1000.5 hPa | 0 mm | - | 136 W/m² | - |
| 1788652947 | 31.67° C | 15% | 1000.6 hPa | 0 mm | - | 158 W/m² | - |
| 1788652647 | 31.67° C | 15% | 1000.5 hPa | 0 mm | - | 169 W/m² | - |
| 1788652341 | 32.22° C | 15% | 1000.6 hPa | 0 mm | - | 189 W/m² | - |
| 1788652037 | 31.67° C | 15% | 1000.7 hPa | 0 mm | - | 189 W/m² | - |
| 1788651732 | 31.67° C | 14% | 1000.6 hPa | 0 mm | - | 209 W/m² | - |
| 1788651428 | 31.67° C | 14% | 1000.5 hPa | 0 mm | - | 223 W/m² | - |
| 1788651127 | 32.22° C | 14% | 1000.8 hPa | 0 mm | - | 242 W/m² | - |
| 1788650822 | 32.22° C | 14% | 1000.8 hPa | 0 mm | - | 255 W/m² | - |
| 1788650517 | 32.22° C | 14% | 1000.6 hPa | 0 mm | - | 274 W/m² | - |
* Rain latest hour (hover to see other rain measurements)
** Current wind speed in m/s (hover to see current wind gust speed)